Regional Weather Roundup
Issued by NWS Green Bay, WI

Home | Current Version | Previous Version | Text Only | Print | Product List | Glossary On
Versions: 1 2 3 4 5 6 7 8 9 10 11 12 13 14 15 16 17 18 19 20 21 22 23 24 25 26 27 28 29 30 31 32 33 34 35 36 37 38 39 40 41 42 43 44 45 46 47 48 49 50
000
ASUS43 KGRB 300000
RWRGRB

NORTH-CENTRAL AND NORTHEAST WISCONSIN REGIONAL WEATHER ROUNDUP
NATIONAL WEATHER SERVICE GREEN BAY WI
700 PM CDT SUN MAY 29 2016

WIZ005-009-010>012-018-019-300100-
NORTH CENTRAL WISCONSIN

CITY           SKY/WX    TMP DP  RH WIND       PRES   REMARKS
IRONWOOD       CLOUDY    64  57  77 NW15      29.86S
MANITOWISH WTR NOT AVBL
ARBOR VITAE    NOT AVBL
EAGLE RIVER    NOT AVBL
LAND O LAKES   NOT AVBL
RHINELANDER    CLOUDY    68  54  60 W9        29.91R
PHILLIPS       NOT AVBL
ANTIGO         NOT AVBL
TOMAHAWK       NOT AVBL
MERRILL        NOT AVBL
$$

WIZ013-073-300100-
NORTHEAST WISCONSIN

CITY           SKY/WX    TMP DP  RH WIND       PRES   REMARKS
IRON MOUNTAIN  CLOUDY    66  59  78 W13       29.85R
MARINETTE      MOSUNNY   73  60  63 W8        29.86R
$$

WIZ017-030-035>037-045-300100-
CENTRAL WISCONSIN

CITY           SKY/WX    TMP DP  RH WIND       PRES   REMARKS
MEDFORD        NOT AVBL
WAUSAU         MOSUNNY   73  55  53 W18       29.90R
MOSINEE        NOT AVBL
MARSHFIELD     SUNNY     72  57  59 W10       29.93R
WISC RAPIDS    SUNNY     76  51  41 W15       29.93S
STEVENS POINT  NOT AVBL
WAUPACA        NOT AVBL
SHAWANO        NOT AVBL
CLINTONVILLE   NOT AVBL
WAUTOMA        SUNNY     77  55  46 W14       29.92S
$$

WIZ038-039-048-051-300100-
FOX VALLEY

CITY           SKY/WX    TMP DP  RH WIND       PRES   REMARKS
NWS GREEN BAY  SUNNY     75  60  59 W8        29.88S
APPLETON       PTSUNNY   73  55  53 W12G21    29.89F
OSHKOSH        MOSUNNY   76  56  49 W8        29.90S
FOND DU LAC    MOSUNNY   76  57  51 W8        29.92S
$$

WIZ022-050-052-300100-
EAST CENTRAL WISCONSIN

CITY           SKY/WX    TMP DP  RH WIND       PRES   REMARKS
EPHRAIM        NOT AVBL
STURGEON BAY   NOT AVBL
MANITOWOC      NOT AVBL
SHEBOYGAN      SUNNY     75  59  57 W9        29.91S
$$

LMZ563-521-522-541>543-300100-
LAKESHORE

STATION/POSITION TIME  TEMP    WIND        PRES    VSBY  WAVE
                       AIR SEA DIR/SP/G                  HT/PER
                 (UTC) (F)     (DEG/KT/KT) (MB)    (MI)  (FT/S)
SHEBOYGAN LKSHOR 2300   76     280/ 15/ 18 1012.8F
KEWAUNEE LKSHORE 2300                      1011.1F
NORTHPORT PIER   2300   71     220/  6/ 16 1010.2S
N MID LAKE BUOY  2250   52 48  190/ 16/ 17 1009.8F         3/ 5
CHAMBERS ISLAND  2340   69     210/  5/ 10 1010.8R
MENOMINEE LKSHOR 2300                      1009.6S
$$




USA.gov is the U.S. government's official web portal to all federal, state and local government web resources and services.